Regional Weather Roundup
Issued by NWS

Home | Current Version | Previous Version | Graphics & Text | Print | Product List | Glossary On
Versions: 1 2 3 4 5 6 7 8 9 10 11 12 13 14 15 16 17 18 19 20 21 22 23 24 25 26 27 28 29 30 31 32 33 34 35 36 37 38 39 40 41 42 43 44 45 46 47 48 49 50
497
ASUS45 KBOU 031807
RWRCO

WEATHER ROUNDUP FOR COLORADO
NATIONAL WEATHER SERVICE DENVER/BOULDER CO
1100 AM MST SAT DEC 03 2016

NOTE: "FAIR" INDICATES FEW OR NO CLOUDS BELOW 12000 FEET WITH NO
SIGNIFICANT WEATHER AND/OR OBSTRUCTIONS TO VISIBILITY.

COZ001>005-013-030-031-031900-
...NORTHWEST COLORADO...

CITY           SKY/WX    TMP DP  RH WIND       PRES   REMARKS
CRAIG          CLOUDY    23  11  60 E5        30.18F WCI  17
HAYDEN         FAIR      19   9  63 E6        30.17R WCI  11
MEEKER         CLOUDY    18   9  68 CALM      30.18F
MOUNT WERNER   NOT AVBL
STEAMBOAT SPGS PTSUNNY   18  11  74 NW5       30.16S WCI  11
WALDEN           N/A     21   5  49 S15G22    30.07S WCI   8
$$

COZ006>008-011-031900-
...WEST CENTRAL VALLEYS...

CITY           SKY/WX    TMP DP  RH WIND       PRES   REMARKS
GRAND JUNCTION FAIR      35  22  58 CALM      30.22F
MONTROSE       PTSUNNY   31  18  58 CALM      30.23S
EAGLE          MOSUNNY   30  18  59 CALM      30.19F
RIFLE          PTSUNNY   28  16  60 CALM      30.23F
DELTA          FAIR      37  22  55 CALM      30.23S
NUCLA          FAIR      30  19  64 CALM      30.24F
$$

COZ017>023-064>068-031900-
...SOUTHWEST COLORADO...

CITY           SKY/WX    TMP DP  RH WIND       PRES   REMARKS
DURANGO        FAIR      32  22  66 W6        30.11F WCI  26
CORTEZ         FAIR      34  26  72 S3        30.15S
PAGOSA SPRINGS PTSUNNY   32  22  66 CALM      30.10F
TELLURIDE      FAIR      24  16  71 W7        30.12S WCI  15
WOLF CREEK PAS FOG       14  14 100 SW12      30.09F VSB 1/4 WCI   0
$$

COZ009-010-012-014-032>034-037-058>063-031900-
...CENTRAL COLORADO...

CITY           SKY/WX    TMP DP  RH WIND       PRES   REMARKS
ASPEN          FAIR      24  13  62 VRB3      30.12F
BUENA VISTA    FAIR      26  15  64 E3        30.02F
COPPER MTN     NOT AVBL
BERTHOUD PASS  CLOUDY     0 -13  55 N20G32    29.93F WCI -22
COTTONWOOD PAS FAIR      28  14  54 NE3       30.00R
GUNNISON       PTSUNNY   25  15  66 W7        30.13F WCI  17
KREMMLING      PTSUNNY   23  14  68 CALM      30.14F
LEADVILLE      FAIR      20  -2  38 NW9       30.01F WCI   9
MONARCH PASS   CLOUDY     9   5  85 W48G56    30.03F WCI -19
SALIDA         FAIR      32  15  49 SW16G26   30.09F WCI  21
SUNLIGHT       PTSUNNY  N/A N/A N/A SW7       30.11F
WILKERSON PASS FAIR      14  10  85 N6        29.98S WCI   5
$$

COZ069>075-031900-
...SAN LUIS VALLEY/SANGRE DE CRISTO MOUNTAINS...

CITY           SKY/WX    TMP DP  RH WIND       PRES   REMARKS
ALAMOSA        CLOUDY    25  18  74 CALM      30.10F
LA VETA PASS   SNOW      21  18  86 NE37G43   29.96F VSB 1/2 WCI   1
SAGUACHE       FAIR      28  19  69 SE6       30.09F WCI  22
$$

COZ035-036-038>040-031900-
...NORTHERN COLORADO FRONT RANGE...

CITY           SKY/WX    TMP DP  RH WIND       PRES   REMARKS
DENVER INTL AP FAIR      36  18  48 CALM      29.99F
DMNS CITY PARK   N/A     36  15  41 N7        29.99S
AURORA         MOSUNNY   37  15  41 S3        29.98F
FRONT RANGE AP NOT AVBL
ERIE MUNI ARPT FAIR      33  22  63 CALM      30.00F
BOULDER MUN AP FAIR      32  21  64 SE3       29.99S
CENTENNIAL     FAIR      37  12  35 CALM      29.97F
BROOMFIELD     PTSUNNY   32  23  69 CALM      29.99S
FORT COLLINS   FAIR      28  21  74 CALM      30.01F
LONGMONT       FAIR      35  23  62 CALM      30.02F
$$

COZ041-046-047-076>085-087-088-031900-
...PIKES PEAK/PALMER DIVIDE AND SOUTHERN FOOTHILLS...

CITY           SKY/WX    TMP DP  RH WIND       PRES   REMARKS
COLO. SPRINGS  FAIR      32  20  61 VRB3      29.97F
A. F. ACADEMY  FAIR      30  21  69 CALM      29.95F
SCHRIEVER AFB  NOT AVBL
ELLICOTT       FAIR     N/A N/A N/A VRB3      29.96F
FALCON         FAIR      34  23  64 CALM      29.96F
FORT CARSON    FAIR      32  20  60 N9        29.95F WCI  24
LIMON          FAIR      37  21  52 CALM      29.99F
MONUMENT HILL  FAIR      36  12  38 N6        29.97F
TRINIDAD       FAIR      37  22  54 S12       29.98F
$$

COZ042>045-048>051-090-091-031900-
...NORTHEAST COLORADO...

CITY           SKY/WX    TMP DP  RH WIND       PRES   REMARKS
GREELEY ARPT   FAIR      32  21  64 NW5       30.03F WCI  27
AKRON          FAIR      34  20  56 W13       30.00F WCI  25
BURLINGTON     FAIR      40  25  55 SW14      30.03F
WRAY           NOT AVBL
STERLING       FAIR      34  23  64 W3        30.02F
HOLYOKE        FAIR      43  23  45 SW12      30.03F
FORT MORGAN    FAIR      32  22  65 W12       30.02F WCI  23
$$

COZ086-089-092>099-031900-
...SOUTHEAST COLORADO...

CITY           SKY/WX    TMP DP  RH WIND       PRES   REMARKS
PUEBLO         FAIR      38  22  52 SE3       29.99F
LA JUNTA       FAIR      37  23  56 CALM      30.03F
LAMAR          LGT RAIN  40  28  62 S14       30.04F
SPRINGFIELD      N/A     33  30  88 S15       30.05F WCI  23
$$




USA.gov is the U.S. government's official web portal to all federal, state and local government web resources and services.